This is the latest recevied weather packets stored in our database for station/object N9BSW. If no packets are shown the sender has not sent any weather packets the latest 1 day(s).
| Time | Temp. | Humidity | Pressure | Rain* | Wind** | Luminosity | Snow |
|---|---|---|---|---|---|---|---|
| 1778001310 | 15.56° C | 89% | 1008.8 hPa | 0 mm | 0 m/s | 39 W/m² | - |
| 1778001008 | 15.56° C | 89% | 1008.7 hPa | 0 mm | 0 m/s | 82 W/m² | - |
| 1778000704 | 15.56° C | 88% | 1008.5 hPa | 0 mm | 0 m/s | 170 W/m² | - |
| 1778000400 | 15.56° C | 88% | 1008.7 hPa | 0 mm | 0 m/s | 68 W/m² | - |
| 1778000096 | 15.56° C | 89% | 1008.7 hPa | 0 mm | 0.45 m/s, 204° | 46 W/m² | - |
| 1777999791 | 15.56° C | 89% | 1008.6 hPa | 0 mm | 0 m/s | 61 W/m² | - |
| 1777999488 | 15.56° C | 89% | 1008.6 hPa | 0 mm | 0 m/s | 141 W/m² | - |
| 1777999186 | 15.56° C | 88% | 1009 hPa | 0 mm | 0.45 m/s, 161° | 87 W/m² | - |
| 1777998884 | 15.56° C | 89% | 1009.1 hPa | 0 mm | 0 m/s | 99 W/m² | - |
| 1777998584 | 15.56° C | 88% | 1009.2 hPa | 0 mm | 0.45 m/s, 71° | 83 W/m² | - |
| 1777998279 | 15.56° C | 88% | 1009.2 hPa | 0 mm | 0.89 m/s, 158° | 64 W/m² | - |
| 1777997976 | 16.11° C | 88% | 1008.8 hPa | 0 mm | 0 m/s | 104 W/m² | - |
| 1777997672 | 16.11° C | 88% | 1009 hPa | 0 mm | 0.45 m/s, 58° | 154 W/m² | - |
| 1777997370 | 16.11° C | 87% | 1009.2 hPa | 0 mm | 0.45 m/s, 69° | 86 W/m² | - |
| 1777997068 | 16.67° C | 85% | 1009 hPa | 0 mm | 0.89 m/s, 111° | 59 W/m² | - |
| 1777996764 | 16.67° C | 85% | 1008.7 hPa | 0 mm | 0.89 m/s, 187° | 60 W/m² | - |
| 1777996461 | 16.67° C | 85% | 1008.7 hPa | 0 mm | 0 m/s | 196 W/m² | - |
| 1777996158 | 16.67° C | 85% | 1008.7 hPa | 0 mm | 0 m/s | 166 W/m² | - |
| 1777995854 | 16.67° C | 85% | 1009.1 hPa | 0 mm | 0.45 m/s, 199° | 163 W/m² | - |
| 1777995550 | 16.67° C | 84% | 1008.6 hPa | 0 mm | 0 m/s | 171 W/m² | - |
| 1777995248 | 16.67° C | 86% | 1008.6 hPa | 0 mm | 0 m/s | 186 W/m² | - |
| 1777994944 | 16.67° C | 84% | 1008.8 hPa | 0 mm | 0 m/s | 188 W/m² | - |
| 1777994642 | 16.67° C | 85% | 1008.6 hPa | 0 mm | 0.45 m/s, 178° | 176 W/m² | - |
| 1777994341 | 16.67° C | 86% | 1008.6 hPa | 0 mm | 0 m/s | 167 W/m² | - |
| 1777994038 | 16.67° C | 87% | 1008.6 hPa | 0 mm | 0 m/s | 170 W/m² | - |
* Rain latest hour (hover to see other rain measurements)
** Current wind speed in m/s (hover to see current wind gust speed)